sat.trackr.live / text

‹ back to catalog

STARLINK-30845

NORAD 58207 · 2023-170B

PAYLOAD ACTIVE UNKNOWN

§ Identity

Operator
Country
US
Launch date
2023-11-03
Launch site
AFETR
Launch vehicle
Mass (kg)
RCS (m²)

Purposes: comms

External: N2YO · Heavens-Above · Gunter

§ Orbital elements

Epoch: 2026-05-24T11:21:10.027872Z

Period
95.63 min
Inclination
42.9980°
Eccentricity
0.0001434
Mean motion
15.05818484 rev/d
Perigee alt
548.0 km
Apogee alt
550.0 km
Semi-major
6,927.1 km
B*
9.0334e-4
RAAN
142.9163°
Arg perigee
285.6610°
Mean anomaly
74.4075°
Rev number
14,169

§ Raw data

STARLINK-308451 58207U 23170B   26144.47303273  .00013137  00000+0  90334-3 0  99972 58207  42.9980 142.9163 0001434 285.6610  74.4075 15.05818484141694

JSON: /api/v1/satellites/58207 · /tle

For live sub-satellite position, see the globe view (requires WebGL).

§ Visibility from observer

Set your observer location to see the next 7 days of passes ≥ 10°. The values pass through the URL so the page stays shareable.

No JS? Fill the form by hand. The geolocation button needs JavaScript.